{"data":{"norad_id":55939,"epoch":"2026-05-25T03:32:46.070880Z","epoch_age_seconds":59289,"freshness":"FRESH","line1":"1 55939U 23037AB  26145.14775545  .00000679  00000+0  64746-4 0  9994","line2":"2 55939  69.9998  91.6505 0003457 262.1354  97.9412 14.98313057175434","mean_motion":14.98313057,"eccentricity":0.0003457,"inclination_deg":69.9998,"raan_deg":91.6505,"arg_perigee_deg":262.1354,"mean_anomaly_deg":97.9412,"bstar":6.4746e-5,"rev_number":17543,"period_min":96.108085908511,"perigee_km":569.70558647256,"apogee_km":574.51098606348,"semimajor_km":6950.245286268,"source":"CELESTRAK","updated_at":"2026-05-25T13:38:17.915630Z"}}